Location: Unspecified
(49.2170°N, 0.0000°E)
Time: 10:59:09
(UTC+00:00)

Transit 2A - Pass Details

Date: 24 June 2019
Orbit: 595 x 964 km, 66.7° (Epoch: 22 July)

Event Time Altitude Azimuth Distance (km) Brightness Sun altitude
Exits shadow 22:48:07 22° 149° (SSE) 1,970 7.5 -15.5°
Maximum altitude 22:50:48 30° 110° (ESE) 1,654 7.4 -15.6°
Drops below altitude 10° 22:56:07 10° 52° (NE) 2,661 9.1 -15.9°
Sets 22:58:54 0° 43° (NE) 3,573 9.9 -16.0°
